Preview of NWS' New Version of Forecast
This preview is not operational and should not be used for support decisions.

Regional Weather Roundup (RWR)

Issued by National Weather Service (NWS)

                            
000
ASUS43 KMKX 220311
RWRWI 

WISCONSIN REGIONAL WEATHER ROUNDUP
NATIONAL WEATHER SERVICE MILWAUKEE/SULLIVAN WI
1000 PM CDT SAT SEP 21 2019

NOTE: "FAIR" INDICATES FEW OR NO CLOUDS BELOW 12,000 FEET WITH NO
SIGNIFICANT WEATHER AND/OR OBSTRUCTIONS TO VISIBILITY.

WIZ001-002-006>008-014>016-023>028-220400-
NORTHWEST WISCONSIN
  
CITY           SKY/WX    TMP DP  RH WIND       PRES   REMARKS
SUPERIOR ARPT    N/A     58  58 100 CALM      29.72R FOG              
ASHLAND        MOCLDY    67  64  90 S8        29.74S                  
HAYWARD        RAIN      66  63  90 S10G18    29.80R FOG              
SIREN          FAIR      65  64  97 CALM      29.76F                  
CUMBERLAND     CLOUDY    72  66  83 S9        29.79R                  
RICE LAKE      CLOUDY    73  58  59 S10       29.80S                  
CHETEK         CLOUDY    73  70  88 S5        29.80S                  
LADYSMITH      CLOUDY    73  71  92 S10       29.83S                  
EAU CLAIRE     MOCLDY    74  68  81 S7        29.80R                  
MENOMONIE      FAIR      70  67  89 S9        29.80R                  
NEW RICHMOND   MOCLDY    73  68  85 SW10      29.79R                  
OSCEOLA        MOCLDY    73  71  91 SW7       29.80R                  
$$
 
WIZ003>005-009-010-017-018-220400-
NORTH CENTRAL WISCONSIN
  
CITY           SKY/WX    TMP DP  RH WIND       PRES   REMARKS
MANITOWISH WTR CLOUDY    70  70 100 SW6       29.84R                  
ARBOR VITAE    CLOUDY    72  68  88 SW7       29.84R                  
WOODRUFF       CLOUDY    72  68  88 SW7       29.84R                  
RHINELANDER    HVY RAIN  70  68  93 SW10      29.86R FOG              
EAGLE RIVER    LGT RAIN  69  69 100 SW5       29.84S                  
LAND O LAKES   NOT AVBL                                               
PHILLIPS       CLOUDY    70  70 100 SW7       29.82S                  
TOMAHAWK       LGT RAIN  69  67  95 CALM      29.85S                  
MEDFORD        CLOUDY    69  68  98 SW9       29.86R                  
MERRILL        RAIN      71  71 100 S8        29.86S                  
$$
 
WIZ029-030-035-036-043>047-220400-
CENTRAL WISCONSIN
  
CITY           SKY/WX    TMP DP  RH WIND       PRES   REMARKS
WAUSAU         CLOUDY    71  70  96 S9        29.85R                  
MOSINEE        DRIZZLE  N/A N/A N/A S12       29.87S                  
MARSHFIELD     CLOUDY    71  70  96 SW10      29.86R                  
STEVENS POINT  CLOUDY    70  70 100 S12G17    29.88R                  
WAUPACA        CLOUDY    75  71  87 S9        29.89S                  
WAUTOMA        CLOUDY    73  70  90 S12G17    29.90S                  
WISC RAPIDS    LGT RAIN  73  69  87 S12G22    29.87S                  
CAMP DOUGLAS   MOCLDY    74  71  89 S10       29.86S                  
$$
 
WIZ011>013-019>022-031-037>040-048>050-220400-
NORTHEAST WISCONSIN
  
CITY           SKY/WX    TMP DP  RH WIND       PRES   REMARKS
ANTIGO         CLOUDY    69  69 100 S13G18    29.88S                  
SHAWANO        CLOUDY    74  70  88 S5        29.87S                  
OCONTO         CLOUDY    72  69  91 S7        29.88S                  
STURGEON BAY   CLOUDY    67  66  97 S9        29.92R                  
GREEN BAY      CLOUDY    74  69  85 S10G21    29.90R                  
MANITOWOC      CLOUDY    68  66  93 S9        29.93S                  
APPLETON       CLOUDY    72  70  94 S14G22    29.89S                  
CLINTONVILLE   CLOUDY    73  68  83 S9        29.88S                  
OSHKOSH        CLOUDY    74  70  87 S10       29.90S                  
$$
 
WIZ032>034-041-042-053>061-220400-
SOUTHWEST WISCONSIN
  
CITY           SKY/WX    TMP DP  RH WIND       PRES   REMARKS
LA CROSSE      NOT AVBL                                               
SPARTA         CLOUDY    69  67  92 S6        29.86S                  
VIROQUA        CLOUDY    72  72 100 S12G18    29.88S                  
BOSCOBEL       CLOUDY    77  70  79 S12G25    29.88F                  
PRAIRIE DU CHI CLOUDY    75  68  77 S14G23    29.88F                  
PLATTEVILLE    CLOUDY    73  73 100 S14       29.96R                  
$$

WIZ056-057-062-063-064-067-068-220400-
SOUTH CENTRAL WISCONSIN
  
CITY           SKY/WX    TMP DP  RH WIND       PRES   REMARKS
REEDSBURG      CLOUDY    73  73  98 S12       29.88F                  
BARABOO/DELLS    N/A     72  68  88 SW13      29.90F                  
LONE ROCK      CLOUDY    75  70  84 S12G23    29.89F                  
MINERAL POINT  CLOUDY    73  73 100 S14G22    29.94S                  
MADISON        CLOUDY    73  70  90 S14       29.92F                  
MIDDLETON      CLOUDY    74  69  83 SW13G21   29.93F                  
WATERTOWN      CLOUDY    72  72 100 S15G21    29.95F                  
MONROE         CLOUDY    71  70  96 S20G25    29.96F                  
JANESVILLE     CLOUDY    72  72 100 SW13      29.98S                  
$$
 
WIZ051-052-058>065-066-070>072-220400-
SOUTHEAST WISCONSIN
  
CITY           SKY/WX    TMP DP  RH WIND       PRES   REMARKS
MILWAUKEE      LGT RAIN  74  69  85 SW12      29.97R                  
WAUKESHA       CLOUDY    70  68  94 S12G20    29.98S                  
MILWAUKEE/TIMM CLOUDY    72  64  78 SW12G17   29.97S                  
RACINE         LGT RAIN  74  70  87 SW12G22   30.00R                  
KENOSHA        LGT RAIN  74  72  93 SW13G23   29.99S                  
FOND DU LAC    CLOUDY    75  70  84 S10G21    29.92S                  
SHEBOYGAN      MOCLDY    73  69  87 SW10      29.93S                  
WEST BEND      CLOUDY    72  70  94 SW9G21    29.94F                  
JUNEAU         MOCLDY    72  70  96 S10G20    29.94F                  
$$

LSZ147-162-220400-
LAKE SUPERIOR
  
STATION/POSITION TIME  TEMP    WIND        PRES    WAVE
                       AIR SEA DIR/SP/G            HT/PER
                 (UTC) (F)     (DEG/KT/KT) (MB)    (FT/S)
W MID LAKE BUOY  0250   63 55  210/  8/ 10 1005.0R   2/ 4
DEVILS ISLAND    0200   64     220/ 13/ 16 1005.4R
SAXON HARBOR     0240   71     190/  8/ 13 1006.1R
$$
 
LMZ867-665-643>646-220400-
LAKE MICHIGAN
  
STATION/POSITION TIME  TEMP    WIND        PRES    WAVE
                       AIR SEA DIR/SP/G            HT/PER
                 (UTC) (F)     (DEG/KT/KT) (MB)    (FT/S)
CHAMBERS ISLAND  0240   70     120/  7/ 13   N/A
N MID LAKE BUOY  0250   66 63  190/ 19/ 23 1012.5F   6/ 6
NORTHPORT PIER   0240   68     140/  7/ 17 1012.2S
KEWAUNEE LAKESHO 0230   62     180/ 13/ 15 1012.6S
SHEBOYGAN LAKESH 0300   67     180/ 12/ 13 1013.5S
PORT WASHINGTON  0240   73     200/  6/  9 1015.2S
S MID LAKE BUOY  0250   72 69  210/ 19/ 25 1015.9R   3/ 5
KENOSHA   LAKESH 0200   73     210/ 10/ 17 1015.2
$$

TC  - TEMPERATURE IN CELSIUS
VSB - VISIBILITY IN STATUTE MILES
WCI - WIND CHILL INDEX
HX  - HEAT INDEX